Theta_e
333 332 332 332 332 332 332 332 332 329 328 329 327 323 325 331 333 333 335 334 331 330 333 332 331 335 337 337 337 336 333 331 329 329 331 333 332 332 332 330 329 330 332 333 334 335 337 337 336 337 338 337 335 333 333 334 335 335 333 331 333 335 335
332 332 332 333 332 332 333 332 331 329 328 329 330 327 323 327 331 332 333 334 332 329 330 333 333 335 338 338 336 332 329 328 327 326 328 332 332 332 332 331 331 333 334 335 335 336 337 337 336 337 338 338 338 337 333 330 332 335 335 333 332 333 335
332 332 333 333 332 333 333 332 330 328 328 329 331 328 323 323 326 330 332 333 333 330 328 330 335 337 338 336 331 328 328 326 325 324 324 329 332 333 332 333 333 334 335 336 336 337 338 338 338 339 338 338 338 339 336 330 333 338 337 335 334 335 336
332 332 332 332 333 333 332 332 330 329 328 330 332 330 326 323 322 325 331 333 332 333 329 327 332 337 337 334 329 327 328 326 325 324 323 326 330 331 332 332 333 334 334 335 335 335 336 336 338 338 338 338 337 338 339 333 332 336 336 335 336 336 336
332 332 332 333 333 333 333 332 332 331 331 331 332 332 329 327 325 324 328 333 333 333 331 327 329 335 337 335 330 327 327 326 325 324 324 326 327 328 330 331 332 333 334 335 334 334 334 334 337 337 337 339 338 336 338 336 334 336 336 335 336 336 337
333 333 332 333 332 332 333 332 332 332 333 332 332 332 331 331 330 327 326 330 332 331 330 327 329 334 337 336 331 326 325 326 324 323 324 325 325 326 329 331 332 332 333 335 334 333 334 333 334 336 336 338 339 337 337 337 337 337 336 336 336 336 337
332 332 332 333 332 331 332 332 332 333 333 333 332 332 333 332 332 330 326 325 328 331 331 330 332 335 335 333 331 328 324 324 325 325 324 325 326 325 327 330 331 331 332 333 333 332 334 334 334 336 337 337 338 338 337 336 337 337 337 337 337 337 337
331 331 331 332 332 332 332 331 331 332 333 332 332 333 333 332 332 331 326 323 326 330 331 332 333 336 333 329 330 329 325 324 326 326 324 324 325 325 325 327 327 327 330 331 331 332 333 333 333 334 336 337 337 337 337 336 336 336 337 337 337 337 337
329 330 330 330 331 331 332 331 331 332 332 332 332 332 332 332 333 332 329 325 326 329 331 332 333 334 332 328 328 328 325 325 325 323 323 324 324 324 325 324 323 325 329 330 330 330 331 331 331 331 333 335 336 336 337 337 337 337 336 336 336 337 336
327 328 329 330 330 329 329 330 330 331 332 332 332 332 332 332 332 332 331 328 327 328 329 332 332 332 333 330 328 327 325 325 324 322 323 324 323 323 322 320 322 326 329 329 330 331 331 331 331 332 333 335 335 335 337 337 337 337 337 337 337 337 336
326 326 327 328 328 328 327 327 327 328 328 329 330 331 332 332 332 332 332 331 330 329 328 330 331 332 333 331 329 328 326 325 324 323 321 319 320 321 319 320 325 329 329 330 331 331 331 331 332 333 334 333 333 334 336 338 338 337 337 338 337 336 336
326 325 325 326 326 327 327 327 327 327 326 327 329 330 331 331 331 332 332 332 331 330 330 329 330 332 333 331 329 328 327 325 325 324 321 319 319 318 317 321 328 330 330 331 331 330 330 331 332 333 334 333 333 334 334 336 336 337 338 337 336 336 335
324 324 325 326 327 327 327 328 328 327 328 328 329 330 330 330 331 331 332 332 332 331 330 329 329 330 332 331 329 328 327 326 326 325 323 323 321 318 319 325 329 329 330 332 332 330 331 332 332 333 333 333 333 333 333 334 334 336 337 335 335 335 335
322 322 322 324 326 327 328 329 328 327 328 329 330 330 331 331 331 330 331 332 332 332 331 330 329 329 331 331 329 328 328 328 327 326 325 326 324 323 325 329 331 331 332 333 333 333 333 333 332 332 331 331 331 331 333 334 334 335 336 335 335 335 335
321 320 318 320 323 324 327 328 328 328 328 328 329 329 329 330 330 330 331 332 332 332 332 331 330 330 330 330 328 329 329 328 328 328 327 327 328 327 328 330 331 333 333 333 333 334 334 333 331 330 330 330 330 331 334 334 335 336 336 335 335 335 335
320 319 317 319 321 322 323 325 326 328 328 328 328 327 328 329 330 331 331 331 332 331 332 332 332 331 331 328 327 329 329 327 327 329 329 330 331 331 330 329 330 332 332 332 332 333 334 333 331 330 330 329 331 335 336 335 334 335 336 335 335 334 335
319 318 318 320 321 321 321 322 324 325 326 328 329 328 328 328 330 331 331 331 331 331 331 332 331 332 331 329 328 330 330 328 326 330 334 334 335 335 332 329 330 330 330 330 331 334 334 333 331 331 332 332 334 336 335 334 332 333 333 334 334 334 334
319 319 319 320 322 322 323 322 322 322 324 326 328 328 328 328 328 329 330 331 331 331 331 332 331 331 331 330 329 330 331 330 328 332 335 336 337 335 332 329 330 330 329 329 333 336 335 334 334 335 335 335 336 335 333 332 331 331 331 333 334 333 333
319 319 319 320 322 323 323 322 322 323 323 324 325 327 328 328 327 328 329 330 331 331 331 331 330 329 330 330 330 330 331 330 329 331 333 333 334 333 330 330 331 330 329 331 334 336 336 336 336 336 336 336 334 333 331 330 330 331 331 333 333 332 331
319 319 319 320 321 322 322 322 322 322 322 323 324 325 327 328 328 328 328 330 330 331 331 330 329 328 329 329 330 329 328 328 329 330 331 330 332 332 331 331 332 331 331 333 335 335 335 336 336 335 335 334 332 331 331 331 332 332 332 332 331 330 330
319 319 319 319 320 321 321 321 321 321 321 322 323 323 325 326 327 328 328 330 330 331 331 329 328 328 329 329 329 328 328 328 330 331 331 331 333 334 333 333 333 333 333 333 334 334 335 335 335 335 334 333 332 331 331 331 331 331 330 330 329 329 328
317 317 318 319 319 320 320 320 320 319 320 321 320 321 321 322 324 326 328 329 330 331 331 329 328 329 330 329 328 328 328 327 329 332 332 333 335 334 333 333 333 332 332 332 332 332 332 333 333 333 333 333 332 331 331 331 330 329 328 328 328 327 326
314 315 316 317 317 318 318 318 318 318 319 319 319 319 320 320 320 322 325 328 329 329 330 330 329 329 329 329 328 327 326 325 327 331 332 332 333 333 332 332 331 331 331 331 330 330 329 330 330 330 330 330 330 330 330 329 328 327 327 326 326 325 324
314 314 315 315 315 315 315 315 316 317 317 317 317 317 319 320 319 321 324 327 327 327 328 329 330 329 328 329 330 328 326 325 329 332 332 332 332 332 332 331 330 330 330 329 329 328 328 328 328 328 328 328 328 327 327 327 327 326 326 325 324 324 322
314 314 314 314 312 310 309 310 313 314 315 315 316 316 317 318 319 320 322 325 327 327 327 328 329 329 328 329 330 329 325 325 329 331 330 329 330 331 331 331 330 329 329 329 328 328 327 328 327 328 327 327 326 325 325 325 324 324 323 322 323 322 320
313 313 313 311 308 305 305 306 308 310 311 313 314 315 315 316 317 318 320 322 324 325 327 327 327 328 329 329 329 327 324 324 328 330 328 327 329 331 330 329 329 329 329 328 327 326 327 326 326 326 325 324 323 322 320 319 318 319 320 320 320 320 319
312 312 311 308 304 303 304 304 305 307 309 312 312 313 314 315 316 317 318 319 320 322 324 325 324 326 328 329 330 329 327 327 329 330 329 328 329 330 329 328 328 328 327 326 325 325 324 324 323 322 320 319 318 317 316 317 317 318 318 319 319 318 317
311 311 310 306 302 302 302 301 304 306 306 309 310 310 312 314 315 316 316 316 317 319 321 322 323 325 326 327 328 328 327 328 328 327 327 326 326 327 327 326 325 324 323 323 321 321 320 319 319 317 316 316 316 317 317 318 318 318 318 318 317 315 314
311 311 309 305 302 303 301 300 304 305 304 305 305 307 311 313 313 314 315 315 315 315 317 320 322 324 324 323 324 324 324 323 324 324 324 324 324 323 322 321 319 319 318 317 316 315 315 316 317 316 316 317 317 317 318 317 317 316 315 314 313 312 311
310 309 308 305 303 304 301 301 305 307 307 306 304 305 310 310 310 312 313 313 313 313 313 316 318 320 320 320 320 321 323 323 322 321 321 320 320 319 317 315 315 314 314 313 313 313 313 315 316 316 316 316 316 316 316 315 314 313 312 312 311 310 310
310 309 308 306 304 303 302 305 308 309 310 309 305 305 309 309 307 307 309 309 310 310 310 311 312 313 315 315 315 316 318 318 317 316 316 316 315 314 312 312 312 312 313 313 313 314 314 315 316 316 316 315 314 314 313 312 312 311 310 310 309 308 308
309 308 309 308 306 306 307 308 309 310 311 311 308 306 308 309 307 306 306 306 307 308 309 310 310 310 310 311 311 311 312 313 312 312 312 312 312 311 311 312 313 313 314 314 314 314 314 315 315 315 315 314 313 312 312 311 311 310 309 309 307 306 305
308 308 308 309 308 308 309 308 309 309 310 311 309 307 308 309 308 307 307 307 308 309 309 309 309 309 309 309 309 310 311 312 311 311 311 311 312 312 313 313 313 313 313 313 313 313 313 314 315 314 313 313 312 311 311 310 309 309 307 306 304 301 299
308 308 308 308 308 308 309 309 309 310 310 310 309 308 309 310 310 309 309 309 309 309 309 309 309 309 309 309 310 311 312 312 311 311 312 312 312 312 313 312 312 312 312 312 312 312 312 312 313 312 312 312 311 310 309 307 306 304 302 301 300 299 299
305 307 308 307 308 308 309 309 310 310 310 309 309 309 310 310 310 310 310 310 309 309 309 309 309 309 310 310 310 311 312 312 312 312 312 312 312 312 312 312 312 311 311 310 310 310 310 310 310 310 310 309 308 306 304 303 302 301 301 301 301 302 302
303 307 308 307 308 309 309 309 310 310 310 309 309 310 310 310 310 310 309 309 309 308 307 307 308 309 310 310 311 311 311 311 312 312 312 312 312 311 311 311 310 309 309 308 308 308 308 308 308 307 305 304 302 300 300 300 301 302 302 303 303 303 302
306 308 307 307 307 308 308 309 309 310 310 310 310 310 310 309 309 309 309 308 307 306 304 304 304 306 308 309 310 311 311 311 312 312 312 311 311 310 309 308 308 307 306 306 305 304 303 303 302 301 300 299 299 299 300 301 302 303 303 303 303 302 301
Wind_Speed
18 19 19 19 21 20 21 23 23 23 24 22 21 22 25 27 25 23 23 23 23 22 21 24 23 18 16 15 15 15 14 13 13 12 10 9 8 7 7 8 8 8 7 7 7 7 7 6 4 4 4 6 8 6 4 4 4 5 5 5 5 6 6
17 18 18 19 20 19 21 23 23 24 25 26 24 23 24 25 24 24 25 25 25 25 23 20 19 17 16 16 17 17 16 15 14 13 12 10 8 8 7 7 7 7 7 7 7 6 7 7 5 4 4 6 7 6 6 4 3 4 5 5 5 4 4
14 15 16 17 18 18 19 22 24 25 27 29 28 26 25 25 25 26 26 26 26 26 25 21 17 17 17 17 18 17 16 16 14 14 14 11 9 8 8 7 7 6 7 7 7 6 6 7 7 7 6 6 6 6 6 4 3 4 5 4 4 3 3
13 15 16 16 17 17 18 20 22 25 27 30 29 27 27 27 26 28 28 27 26 26 26 24 20 17 17 17 17 17 17 16 15 14 14 13 11 9 8 8 8 8 8 8 7 7 7 8 9 9 8 7 7 6 5 5 4 2 2 3 3 2 2
14 15 15 15 16 17 18 18 20 23 26 28 28 28 29 28 27 29 30 28 28 27 26 26 23 19 17 16 17 18 17 17 17 16 16 15 13 11 10 10 9 9 10 9 9 8 8 9 9 10 9 8 8 6 5 6 5 3 1 2 2 2 2
13 15 15 14 15 16 17 18 18 20 22 24 27 28 29 29 29 30 31 31 30 28 27 28 26 20 18 17 17 18 18 18 18 18 18 16 15 12 11 11 10 10 10 10 10 10 9 10 10 11 10 8 8 7 6 5 4 2 0 1 2 1 1
12 14 14 14 15 15 17 17 17 18 19 21 24 26 28 30 30 30 31 32 31 30 29 28 25 20 20 19 18 18 19 19 19 19 18 17 16 14 12 12 12 12 12 11 11 10 9 10 9 10 10 9 8 7 7 5 4 2 1 1 1 1 1
10 11 12 13 14 15 16 18 18 18 18 20 21 23 25 28 30 31 32 32 32 31 30 28 25 22 22 22 20 19 20 20 20 20 19 18 17 15 14 14 13 13 13 12 12 11 10 10 10 10 10 9 8 7 6 5 4 3 2 2 1 0 3
10 10 10 11 12 14 15 16 17 17 18 18 19 21 22 24 28 30 32 34 34 32 30 30 28 26 24 24 23 22 22 22 22 21 20 19 18 16 16 15 14 14 14 13 13 12 12 11 11 12 11 9 9 8 7 6 5 4 3 2 3 3 5
9 10 11 11 12 13 14 15 16 16 17 17 18 21 21 21 24 27 31 34 35 34 33 31 31 30 27 26 25 24 23 23 23 23 22 21 19 18 18 16 14 14 14 14 14 13 13 12 12 12 11 10 10 9 9 8 6 6 5 4 4 6 7
7 9 11 12 12 13 14 14 16 17 17 17 17 18 19 20 22 24 28 32 35 36 35 33 34 33 31 29 27 25 24 24 24 24 24 23 22 21 19 16 14 15 15 15 14 14 14 13 12 12 11 11 11 10 10 10 8 7 6 5 6 7 9
5 7 9 11 13 14 14 14 15 17 18 17 16 16 18 20 22 23 25 28 33 37 37 36 36 34 33 32 29 26 25 24 24 24 23 23 23 22 19 16 15 16 16 16 15 15 15 14 13 12 12 11 11 10 10 10 10 8 6 7 9 8 10
4 5 6 8 10 13 14 15 16 17 17 16 15 16 18 20 22 24 25 25 29 35 38 40 38 36 35 33 30 27 25 24 24 23 23 22 23 21 18 16 16 18 18 17 16 15 15 14 14 13 12 11 10 10 10 10 11 11 9 11 11 8 10
6 6 5 5 7 8 10 13 14 15 16 16 15 15 17 19 22 24 25 25 26 30 37 42 41 38 36 34 32 30 27 26 25 24 24 23 22 20 18 17 17 18 18 18 16 16 15 15 14 12 11 11 11 11 10 11 11 11 10 11 10 8 9
8 9 8 6 6 6 7 10 12 13 15 16 15 15 16 17 20 22 24 25 26 28 34 40 42 39 37 35 33 32 30 27 25 25 25 24 22 20 19 19 18 18 18 17 17 16 15 15 15 13 11 12 12 11 10 10 10 9 9 10 10 8 8
10 11 10 8 8 8 8 9 10 11 13 14 14 15 16 16 18 21 24 26 27 29 33 37 39 36 36 36 34 32 31 28 26 25 25 23 21 21 21 20 19 19 18 18 18 17 15 15 15 13 12 12 11 9 9 10 9 9 9 10 9 8 7
10 10 10 9 8 9 9 8 7 7 9 11 12 14 14 15 18 21 24 26 28 30 33 36 36 31 31 36 35 32 30 28 27 25 23 21 20 20 22 22 21 20 19 19 18 16 15 15 13 12 11 10 9 8 9 10 9 9 9 9 8 7 7
10 10 10 8 8 8 8 7 7 6 6 8 11 13 14 16 18 21 24 27 28 29 31 37 38 32 30 34 34 30 28 27 27 25 22 21 20 21 23 23 21 21 21 20 16 14 13 12 11 10 9 8 9 9 9 9 8 7 7 7 7 7 6
10 10 10 9 7 7 8 7 6 6 6 7 10 13 15 17 19 20 23 26 28 28 30 37 39 32 31 33 31 29 28 27 28 26 25 24 23 23 25 24 21 22 21 18 15 13 13 12 11 10 10 9 9 9 8 7 6 6 6 6 6 6 5
9 9 10 8 6 5 6 7 5 4 5 7 9 11 14 17 19 20 23 26 27 27 29 34 35 31 30 31 30 30 29 29 28 27 26 27 25 24 25 23 20 19 17 15 14 13 12 12 11 10 10 9 8 7 6 5 6 6 5 6 6 5 6
7 7 7 6 4 3 3 5 5 5 5 6 7 8 10 13 16 19 22 25 26 26 28 32 33 30 29 30 29 29 29 28 27 26 26 25 23 22 22 19 17 17 17 17 16 14 13 12 11 10 9 8 7 6 6 6 6 5 6 7 6 6 6
5 5 5 5 4 4 4 4 5 6 6 6 7 8 8 9 11 15 20 24 24 22 24 30 32 30 29 29 28 27 27 27 27 25 24 22 20 20 21 19 19 20 20 18 17 16 14 13 12 10 9 9 8 7 7 6 5 5 6 6 6 6 7
5 5 4 4 4 4 4 5 5 6 7 7 8 9 9 9 11 12 19 23 24 23 24 27 31 31 29 29 28 28 27 26 26 26 25 22 19 20 22 23 23 21 19 17 16 15 14 13 12 11 11 10 10 8 7 7 6 6 6 6 7 7 7
5 5 5 5 6 6 6 6 5 5 8 9 7 9 9 11 14 10 16 21 20 23 26 28 30 32 31 30 29 29 27 25 24 24 25 24 23 23 25 25 21 19 18 17 15 13 11 10 11 11 11 11 10 10 9 8 7 7 7 7 8 7 6
6 7 7 8 9 9 9 8 6 6 11 11 6 6 8 10 13 7 8 16 18 20 23 26 28 30 31 31 30 29 27 26 24 22 21 24 26 25 25 22 19 18 18 16 13 11 10 10 11 11 12 11 12 12 12 11 10 9 7 5 6 7 6
6 7 8 9 11 11 10 9 8 7 11 11 6 3 4 6 9 11 8 3 12 18 21 23 25 28 31 32 31 29 29 28 27 25 23 23 24 23 20 18 17 17 16 14 13 12 11 11 12 12 13 13 13 13 11 10 9 9 7 4 3 5 6
7 8 9 10 11 10 10 10 8 7 9 10 6 3 2 5 7 9 10 7 2 11 16 18 19 22 26 26 24 25 27 28 28 27 24 22 22 21 18 16 16 16 15 14 12 10 10 11 12 11 12 12 11 9 7 6 5 5 5 3 3 4 6
7 8 10 12 11 9 10 10 7 5 7 8 5 3 3 3 6 7 6 5 4 5 11 14 14 14 17 18 19 20 21 22 23 22 20 18 18 17 16 15 15 15 14 12 11 10 9 8 7 7 8 7 6 4 4 4 4 3 4 4 5 5 5
7 8 10 12 10 8 10 10 6 4 6 7 5 4 4 2 2 5 5 4 4 3 4 9 10 10 13 17 18 18 17 17 17 17 16 15 14 14 14 14 13 12 12 11 11 11 10 7 6 6 6 5 5 4 4 4 4 3 4 4 3 2 1
8 10 11 10 9 8 9 8 5 4 5 6 6 5 5 4 2 2 3 3 5 7 4 0 4 8 9 11 13 14 14 14 13 13 14 14 14 14 13 13 11 10 11 11 10 10 10 9 8 7 6 5 5 4 4 3 3 3 2 2 2 3 4
8 10 9 8 8 8 7 5 3 2 3 4 6 6 6 5 4 4 7 9 9 9 7 6 4 4 5 6 7 9 11 12 12 13 13 13 14 13 11 10 11 10 10 10 11 11 11 10 8 7 7 5 5 4 4 4 4 4 5 6 6 7 7
8 9 6 5 5 4 3 2 2 2 3 4 6 7 6 5 5 5 8 11 10 8 6 5 4 4 4 6 7 7 8 8 10 11 9 8 11 13 11 10 11 11 11 11 10 10 11 11 9 8 7 7 6 6 5 5 5 5 6 7 8 8 8
7 6 4 3 2 1 1 1 2 3 3 3 5 7 6 5 5 5 7 8 7 6 4 3 3 4 5 7 8 8 7 7 8 9 8 8 10 13 14 13 12 11 10 10 10 10 11 13 11 8 8 9 9 8 7 7 7 7 7 8 8 9 8
5 4 3 3 2 1 2 2 2 3 3 4 6 7 6 5 5 5 5 5 4 3 2 2 3 5 7 9 11 11 9 8 9 11 11 11 11 12 12 12 11 11 10 10 11 11 11 12 12 10 10 10 10 10 10 10 9 9 9 9 9 8 7
4 3 4 3 3 2 2 2 3 3 4 6 8 8 6 5 5 5 5 4 4 3 4 5 6 7 9 11 13 12 11 12 13 13 13 14 12 11 12 12 12 12 12 12 12 12 12 12 12 11 11 11 10 11 12 11 10 10 9 8 7 7 6
3 4 5 3 3 3 3 3 4 4 5 7 9 9 8 5 4 4 4 4 5 5 7 8 8 10 11 13 14 13 13 15 16 14 13 14 13 12 13 14 14 14 14 14 14 15 14 13 13 12 12 12 11 12 13 12 10 10 9 8 7 6 6
4 5 5 4 3 3 3 4 4 5 7 8 9 10 8 5 4 3 2 4 6 7 8 10 10 11 13 14 15 15 14 15 16 15 13 13 14 15 16 17 17 17 16 15 16 16 15 14 14 13 13 13 12 12 12 11 9 9 8 7 7 6 5
Wind_Direction
243 246 249 250 248 247 247 245 240 236 235 234 232 229 232 234 232 230 231 228 226 229 229 226 221 212 206 209 211 212 213 210 209 213 218 227 237 246 253 256 262 268 269 270 278 288 295 305 301 284 286 307 328 343 326 297 287 287 301 314 315 310 311
246 245 246 249 248 243 243 244 242 238 234 235 234 227 227 231 232 233 233 231 228 230 231 230 226 220 212 210 215 216 213 209 209 216 222 227 235 243 250 259 262 261 261 266 271 274 284 295 294 285 292 304 322 333 327 333 326 311 317 318 315 315 315
246 244 242 246 246 240 239 240 241 240 237 237 237 229 225 227 230 232 234 234 231 230 230 229 226 223 219 217 218 217 213 211 213 221 227 226 231 240 243 249 253 254 257 260 265 270 276 285 288 292 298 303 313 314 314 340 359 326 315 320 333 341 332
242 245 243 242 243 239 237 238 239 239 238 238 237 232 228 227 228 230 232 234 234 231 229 229 228 224 222 220 216 213 213 214 215 222 230 229 231 240 243 246 249 255 261 264 266 270 275 278 282 288 297 306 311 311 308 321 340 334 320 336 347 351 351
240 245 246 241 241 240 238 240 241 241 239 236 234 231 231 229 228 228 228 230 233 232 228 229 230 225 222 221 216 214 215 218 219 222 230 233 234 240 247 252 252 256 261 266 269 268 269 271 275 283 291 300 304 308 308 310 325 343 10 21 4 12 32
240 242 244 241 240 239 238 240 244 243 238 235 233 232 232 232 232 229 227 227 230 232 229 229 229 223 220 221 220 218 218 220 223 225 229 234 238 240 247 255 258 263 264 264 268 269 269 266 267 275 282 291 295 303 308 304 316 324 342 27 12 47 47
242 241 240 241 240 238 237 237 240 241 237 235 235 234 233 233 234 232 226 226 229 232 231 231 228 223 222 223 222 221 221 222 226 228 230 235 240 242 246 252 257 263 264 265 268 270 270 264 261 268 278 286 287 292 301 299 299 287 265 333 356 77 347
245 244 241 240 238 237 237 234 234 238 240 237 234 234 234 234 235 233 227 225 229 231 233 233 230 226 226 225 223 223 224 225 227 230 230 233 239 241 245 251 257 262 262 264 266 264 262 259 255 258 268 281 285 287 292 292 290 283 282 324 329 43 334
244 245 246 244 240 239 238 234 232 237 244 242 238 238 237 235 235 233 229 227 229 231 232 233 231 228 228 227 225 225 226 227 230 231 232 234 237 239 243 251 258 260 259 259 259 257 256 255 253 254 259 268 278 283 287 287 283 278 287 310 300 293 315
242 240 244 246 246 244 240 236 234 234 237 240 241 241 240 237 236 235 231 229 230 231 231 232 231 230 231 231 229 228 227 228 230 231 231 232 235 240 247 254 255 255 256 256 254 251 250 251 250 254 256 257 263 271 279 283 282 279 285 291 295 300 308
249 246 244 242 244 244 241 240 238 235 235 235 237 239 240 239 238 237 235 233 232 232 231 230 231 231 232 232 230 229 229 229 231 232 233 235 237 243 249 250 248 251 253 252 251 248 247 248 247 251 255 255 258 262 268 277 283 282 280 280 289 298 300
259 264 261 253 246 243 244 244 243 242 241 240 239 237 236 236 236 236 236 234 234 233 231 229 229 230 232 230 228 228 229 228 231 233 235 237 240 243 245 243 243 248 251 249 248 247 247 248 248 250 254 256 260 262 265 273 280 279 277 281 289 294 294
269 276 281 272 257 249 248 249 250 249 247 246 245 242 239 237 235 234 234 233 234 234 231 229 227 228 230 228 225 225 227 227 229 232 233 236 239 240 237 236 240 246 248 248 247 245 245 247 248 249 253 258 263 266 267 269 273 277 282 286 290 290 291
278 278 287 289 273 260 255 256 260 259 255 253 249 247 245 241 238 236 235 233 233 233 231 228 226 225 227 226 223 223 225 226 226 229 230 232 235 235 231 232 239 243 246 246 244 243 244 246 247 249 256 262 267 272 272 269 274 281 286 291 294 290 291
278 280 287 289 279 272 262 259 263 264 261 260 256 252 249 246 243 239 235 232 231 234 233 228 225 225 224 224 223 221 222 224 225 226 227 229 229 229 230 232 234 237 242 245 243 243 245 247 249 255 262 266 272 275 270 267 274 283 287 292 295 295 293
273 280 283 279 272 272 265 253 251 254 257 261 264 263 259 252 245 238 234 232 230 233 234 228 224 224 223 223 223 220 219 223 226 225 225 225 224 226 231 234 234 236 241 245 245 241 241 247 254 261 266 270 272 266 259 262 268 274 281 287 292 295 291
271 274 275 275 276 274 268 257 251 251 253 255 259 264 264 256 247 238 234 233 232 234 234 229 224 220 219 222 222 217 217 222 227 226 222 220 220 225 232 235 237 238 241 245 244 240 240 248 255 257 258 263 261 250 252 262 266 270 278 284 288 290 287
269 271 271 275 282 276 266 259 260 259 256 252 250 252 255 253 249 242 236 235 234 236 236 229 223 217 214 218 218 215 216 222 225 222 217 216 216 223 232 236 237 238 240 242 238 233 237 242 242 242 241 241 242 244 252 260 265 270 273 275 281 284 287
266 271 270 270 276 276 267 260 261 266 271 271 262 253 247 246 247 246 241 237 235 237 236 228 222 217 214 216 215 214 217 221 223 222 221 220 220 225 232 236 236 237 239 238 233 231 233 232 230 232 230 228 234 244 257 266 267 267 267 269 277 285 293
262 268 269 269 273 276 267 261 264 274 285 292 285 270 255 247 246 247 244 239 235 237 236 227 220 217 215 216 216 217 218 220 221 221 223 224 223 227 232 234 233 235 235 232 231 232 231 228 227 227 227 231 238 244 251 258 258 263 272 276 281 290 297
262 263 266 267 266 272 274 271 275 279 286 298 299 293 280 262 253 249 244 237 232 234 234 227 221 218 216 216 217 217 218 219 219 221 223 223 220 220 225 226 224 225 226 223 223 225 223 219 217 220 226 230 231 233 240 246 253 264 272 278 289 298 302
268 270 271 263 260 274 289 291 293 290 289 300 310 314 309 294 277 258 243 233 226 226 227 224 222 221 218 217 217 218 219 219 221 223 220 215 213 214 216 215 214 217 222 223 221 221 221 214 208 209 217 220 223 228 236 240 250 269 277 284 294 294 296
285 286 281 270 272 284 287 291 302 300 296 301 319 328 322 321 319 281 245 234 228 223 221 220 220 220 219 219 218 219 222 222 223 226 221 213 210 208 210 213 215 217 220 220 217 215 215 213 212 216 221 226 231 232 235 244 257 270 272 277 285 284 288
290 285 281 282 288 290 287 290 297 296 292 294 317 340 339 344 345 304 237 229 231 230 227 224 221 219 220 222 221 218 221 221 221 224 219 208 204 204 208 214 214 212 210 208 208 210 214 220 224 229 233 239 244 245 246 249 255 260 259 263 274 273 275
281 280 282 287 290 288 284 284 285 286 288 286 300 341 347 360 9 359 232 223 227 229 229 227 223 218 216 220 220 216 220 222 220 218 210 198 198 205 210 209 204 201 201 200 205 214 222 229 235 240 247 252 257 260 260 255 248 244 245 255 261 251 251
277 280 286 291 292 290 282 273 269 276 283 279 276 313 339 360 22 32 25 273 222 217 221 225 224 217 213 216 215 212 218 224 223 224 219 204 197 200 202 197 191 193 197 203 216 224 231 243 250 254 260 264 266 268 268 263 250 236 228 225 228 239 252
280 284 292 299 298 292 280 267 259 267 274 269 262 267 314 348 13 33 30 16 162 182 191 197 199 200 203 208 208 206 210 214 214 214 213 203 193 190 190 189 189 195 204 215 225 231 241 253 258 258 261 261 260 258 251 241 228 218 219 214 217 248 269
285 291 299 305 303 290 275 261 246 253 261 252 248 257 268 322 3 22 24 12 34 120 144 147 149 161 171 178 185 191 194 196 195 196 197 197 193 188 187 194 203 209 216 224 230 235 239 243 240 238 240 236 226 213 200 195 190 196 222 238 246 258 267
289 296 303 306 302 289 272 257 231 221 242 237 228 250 261 254 344 7 12 3 339 352 96 126 147 160 155 156 166 173 176 180 183 187 194 199 200 197 198 205 213 218 224 229 233 233 226 205 182 189 196 187 175 176 183 189 198 212 228 235 239 238 234
294 300 306 304 292 278 264 253 227 201 223 227 221 238 261 247 213 269 297 283 288 304 323 77 178 180 170 166 167 170 178 187 190 195 202 207 210 211 211 212 212 217 221 219 212 205 193 173 160 163 172 176 181 187 192 191 194 200 186 158 127 105 87
298 304 306 295 278 268 255 240 221 191 198 212 218 229 249 252 229 233 253 258 266 278 289 295 283 244 218 209 193 187 196 202 202 205 208 210 210 209 207 206 202 195 191 186 179 174 167 157 153 154 159 169 177 180 184 176 159 142 128 111 91 80 72
297 304 300 284 274 266 244 222 206 186 174 194 214 220 233 247 236 226 241 253 262 270 275 281 277 259 228 212 201 194 195 195 196 198 194 185 186 183 176 174 173 170 170 170 170 172 164 153 152 155 149 139 132 135 147 147 134 121 110 95 79 70 65
290 299 284 265 269 234 200 209 185 179 176 182 201 208 212 227 230 223 229 241 251 259 263 253 230 209 189 185 178 164 160 164 166 167 159 149 155 159 158 159 162 163 166 163 159 163 160 150 145 142 138 136 133 130 131 131 127 117 105 91 76 70 67
283 283 257 248 253 213 186 189 169 172 184 180 184 192 191 194 206 207 207 211 215 220 212 187 178 168 162 166 158 143 141 151 150 145 144 140 141 145 153 159 157 148 146 145 142 143 146 141 136 136 141 145 143 134 123 117 114 105 94 87 82 80 77
282 239 239 243 230 209 187 175 171 175 182 174 169 169 166 168 177 177 176 172 162 161 157 149 155 155 152 156 156 146 144 148 143 138 140 139 135 136 146 150 143 133 131 132 130 130 130 128 128 133 137 137 133 126 116 108 104 100 96 96 99 99 94
272 215 228 230 211 204 189 169 164 166 168 166 161 154 148 151 160 156 157 155 142 140 144 144 148 153 153 155 155 150 148 145 137 133 137 138 133 133 138 139 132 126 124 124 124 124 125 125 127 129 128 129 129 123 114 109 110 112 113 115 113 110 105
205 204 217 211 198 200 185 169 169 171 167 164 162 154 145 142 150 154 157 150 138 135 137 137 139 144 148 150 147 144 146 145 139 135 134 132 131 133 133 130 125 122 121 122 123 123 123 125 127 127 125 124 118 109 105 107 111 114 115 115 111 105 96